Location: Étouvelles
(49.5207°N, 3.5808°E)
Time: 23:59:36
(UTC+00:00)

Cosmos 2058 Rocket - Pass Details

Date: 03 February 2023
Orbit: 610 x 637 km, 82.5° (Epoch: 21 March)

Event Time Altitude Azimuth Distance (km) Brightness Sun altitude
Rises 18:00:18 0° 355° (N) 2,898 6.4 -12.6°
Reaches altitude 10° 18:02:39 10° 3° (N) 1,991 5.5 -12.9°
Maximum altitude 18:06:49 40° 74° (ENE) 921 3.4 -13.6°
Drops below altitude 10° 18:10:58 10° 144° (SE) 1,991 5.4 -14.3°
Sets 18:13:19 0° 152° (SSE) 2,897 6.3 -14.6°
